BEIJING 1 1 28890U 05043A 26253.81498226 .00000321 00000+0 71222-4 0 9990 2 28890 98.3028 27.5617 0015105 18.9283 341.2477 14.63575503113170 HUANJING 1A (HJ-1A) 1 33320U 08041A 26253.86140535 .00001339 00000+0 16600-3 0 9995 2 33320 97.6770 236.4355 0017707 213.7433 146.2656 14.84157227971112 HUANJING 1B (HJ-1B) 1 33321U 08041B 26253.87013382 .00001177 00000+0 14814-3 0 9991 2 33321 97.6602 239.3521 0034558 262.3541 97.3748 14.83458771971112 YAOGAN-4 1 33446U 08061A 26253.57099458 .00000593 00000+0 78799-4 0 9990 2 33446 97.9321 186.4629 0014891 147.4130 212.8006 14.83335623958326 DEIMOS-1 1 35681U 09041A 26253.84961375 .00000178 00000+0 33306-4 0 9992 2 35681 97.7512 47.4249 0000374 37.7711 322.3525 14.75310497919514 UK-DMC 2 1 35683U 09041C 26253.77345817 .00000300 00000+0 50616-4 0 9993 2 35683 97.8949 26.7087 0001353 69.3011 290.8344 14.76135997919196 DMC3-FM1 1 40715U 15032A 26253.86977446 .00000321 00000+0 42756-4 0 9990 2 40715 97.6337 115.6357 0006679 120.2348 239.9530 14.85815868602632 DMC3-FM2 1 40716U 15032B 26253.82407830 .00000011 00000+0 71161-5 0 9991 2 40716 97.6387 117.2230 0007002 126.0921 234.0944 14.85821569602627 DMC3-FM3 1 40717U 15032C 26253.84805073 .00000475 00000+0 60554-4 0 9992 2 40717 97.6433 119.0513 0006234 125.0032 235.1770 14.85810423602639